Regional Weather Roundup
Issued by NWS Wakefield, VA

Home | Current Version | Previous Version | Text Only | Print | Product List | Glossary Off
Versions: 1 2 3 4 5 6 7 8 9 10 11 12 13 14 15 16 17 18 19 20 21 22 23 24 25 26 27

000
ASUS41 KAKQ 271815
RWRAKQ

REGIONAL WEATHER ROUNDUP
NATIONAL WEATHER SERVICE WAKEFIELD VA
200 PM EDT TUE SEP 27 2016

Note: "fair" indicates few or no clouds below 12,000 feet with no
significant weather and/or obstructions to visibility. * = Denotes
station may not report precipitation (e.g., rain,snow,etc.),
thunder or fog.

VAZ042-051-052>054-056-271900-
NORTHERN VIRGINIA

CITY           SKY/WX    TMP DP  RH WIND       PRES   REMARKS
WASH NATIONAL  PTSUNNY   74  50  42 CALM      29.94F
DULLES         MOSUNNY   74  47  38 S5        29.93F
FORT BELVOIR   MOSUNNY   73  53  48 S3        29.93F
QUANTICO       PTSUNNY   72  56  57 E6        29.95F
FREDERICKSBRG* CLOUDY    72  55  54 NE3       29.94F
STAFFORD*      CLOUDY    70  54  55 CALM      29.98F
WARRENTON      MOSUNNY   76  47  35 SE5       29.93F
CULPEPER*      MOSUNNY   75  57  53 SE3       29.94F
MANASSAS*      PTSUNNY   73  50  43 CALM      29.94F
LEESBURG*      SUNNY     75  50  41 N3        29.94F
WINCHESTER     SUNNY     75  45  33 S5        29.93F
FRONT ROYAL*   FAIR      73  55  53 SE6       29.92F
LURAY*         FAIR      73  54  49 CALM      29.92F
$$

VAZ048-049-060>072-079>083-271900-
CENTRAL AND SOUTH CENTRAL VIRGINIA

CITY           SKY/WX    TMP DP  RH WIND       PRES   REMARKS
RICHMOND       CLOUDY    70  67  90 SE5       29.93F
CHESTERFIELD*  CLOUDY    70  55  60 CALM      29.94F
PETERSBURG*      N/A    N/A N/A N/A MISG        N/A
HANOVER        CLOUDY    69  65  86 CALM      29.95F
TAPPAHANNOCK*  CLOUDY    69  69 100 E3        29.94F
QUINTON*       CLOUDY    69  69  98 CALM      29.92F
CHARLOTTSVILLE PTSUNNY   75  62  64 E8        29.93F
GORDONSVILLE*  NOT AVBL
ORANGE*          N/A     72  59  64 CALM      29.96F
LOUISA*        PTSUNNY   73  66  78 SE6       29.94F
BUMPASS*       CLOUDY    69  63  81 E5        29.95F
FARMVILLE*     PTSUNNY   77  67  70 S3        29.91F
CREWE*         CLOUDY    72  71  98 CALM      29.93F
FORT PICKETT*  CLOUDY    70  69  98 S9        29.93F
CHASE CITY*    CLOUDY    71  69  95 CALM      29.94F
CLARKSVILLE*   CLOUDY    70  70 100 CALM      29.94F
SOUTH HILL*    CLOUDY    69  69  98 CALM      29.99F
LAWRENCEVILLE* CLOUDY    70  70 100 S3        29.94F
EMPORIA*       RAIN      70  70 100 CALM      29.95F
$$

VAZ088>098-271900-
SOUTHEAST VIRGINIA

CITY           SKY/WX    TMP DP  RH WIND       PRES   REMARKS
NORFOLK        CLOUDY    77  69  76 CALM      29.92F
VIRGINIA BEACH CLOUDY    78  67  68 S6        29.92F
NORFOLK NAVAL  CLOUDY    78  68  71 N6        29.93F
WEST POINT*    CLOUDY    71  69  94 CALM      29.94F
SALUDA*        MOCLDY    71  69  95 CALM      29.93F
NEWPORT NEWS   CLOUDY    74  68  81 NW5       29.93F
LANGLEY AFB    CLOUDY    75  66  73 NE7       29.92F
FORT EUSTIS    LGT RAIN  73  66  78 N3        29.91F
WILLIAMSBURG*  CLOUDY    73  70  88 CALM      29.94F
HR EXEC AP*    CLOUDY    75  70  83 CALM      29.94F
FRANKLIN*      CLOUDY    76  66  70 CALM      29.93F
US460-WAKEFLD  LGT RAIN  72  67  84 S3        29.93F
$$

VAZ020-022-025-037-045-271900-
WEST CENTRAL AND SOUTHWEST VIRGINIA

CITY           SKY/WX    TMP DP  RH WIND       PRES   REMARKS
STAUNTON*      SUNNY     74  49  40 S6        29.95F
WAYNESBORO*    FAIR      75  55  49 SW7       29.95F
HOT SPRINGS VA SUNNY     65  43  44 NW7       30.02F
LYNCHBURG      CLOUDY    74  64  71 S5        29.94F
DANVILLE       MOSUNNY   76  67  73 VRB5      29.93F
SOUTH BOSTON*  CLOUDY    73  69  86 CALM      29.94F
MARTINSVILLE   MOSUNNY   77  65  67 SE3       29.95F
ROANOKE        PTSUNNY   78  62  57 SW12      29.94F
BLACKSBURG     PTSUNNY   73  63  69 W3        29.99F
DUBLIN*        CLOUDY    74  61  62 NW9       29.98F
MARION*        CLOUDY    71  62  72 SW12      30.02F
HILLSVILLE*    MOSUNNY   74  63  67 SW7       29.98F
RICHLANDS*     FAIR      70  56  61 W6        30.01F
WISE*          SUNNY     70  37  30 NE3       30.02F
ABINGDON*      CLOUDY    73  63  72 W9        29.99F
$$

MDZ021>025-VAZ099-100-271900-
SOUTHERN MARYLAND AND THE DELMARVA PENINSULA

CITY           SKY/WX    TMP DP  RH WIND       PRES   REMARKS
PATUXENT RIVER CLOUDY    69  63  81 E6        29.93F
BAY BRIDGE APT CLOUDY    70  63  78 MISG      29.93F
LEONARDTOWN    CLOUDY    68  63  83 NE3       29.95F
DOVER          CLOUDY    69  69  99 S2        29.93F
GEORGETOWN     LGT RAIN  66  63  90 N3        29.95F
EASTON         PTSUNNY   70  64  83 S5        29.98F
CAMBRIDGE      CLOUDY    64  63  94 CALM      29.93F
SALISBURY      LGT RAIN  68  66  93 N6        29.93F
OCEAN CITY     LGT RAIN  71  67  87 CALM      29.94F
WALLOPS ISLAND LGT RAIN  70  69  97 NE6       29.93F
ACCOMACK*      CLOUDY    74  67  77 W5        29.93F
$$

NCZ012>017-030>032-271900-
NORTH CENTRAL AND EASTERN NORTH CAROLINA

CITY           SKY/WX    TMP DP  RH WIND       PRES   REMARKS
ROANOKE RAPIDS CLOUDY    73  66  78 NW3       29.95S
RALEIGH        CLOUDY    78  68  71 W3        29.93F
ELIZABETH CITY CLOUDY    79  67  66 S5        29.93F
AHOSKIE*       CLOUDY    77  70  79 S3        29.93F
EDENTON*       PTSUNNY   80  67  65 SW3       29.94F
CURRITUCK*     CLOUDY    79  69  72 CALM      29.94F
KILL DEVIL HLS CLOUDY    82  72  71 S3        29.93F
MANTEO         PTSUNNY   78  67  70 S7        29.95F
CAPE HATTERAS  CLOUDY    81  72  74 SE13G18   29.92F
TARBORO*       MOCLDY    82  70  67 S6        29.93F
GOLDSBORO      CLOUDY    83  71  68 SW1       29.89F
WASHINGTON     CLOUDY    79  67  66 CALM      29.93F
GREENVILLE     CLOUDY    81  70  69 SW3       29.94F
NEW BERN       CLOUDY    79  71  76 SW5       29.93F
WILMINGTON     CLOUDY    78  68  71 E7        29.91F
$$

VAZ048-271900-
ELSEWHERE

CITY           SKY/WX    TMP DP  RH WIND       PRES   REMARKS
HARRISBURG PA  MOSUNNY   73  47  39 CALM      29.91F
BALTIMORE      MOSUNNY   72  48  42 CALM      29.93F
ANNAPOLIS      PTSUNNY   73  62  68 SE5       29.93F
ANDREWS AFB    PTSUNNY   71  55  56 VRB1      29.93F
PHILADELPHIA   PTSUNNY   71  55  56 W7        29.93F
HENDERSON NC   CLOUDY    67  65  93 CALM      29.95F
GREENSBORO     PTSUNNY   75  68  78 W6        29.94F
ROCKY MOUNT    LGT RAIN  75  72  90 N7        29.91F FOG
$$

VAZ100-271900-
MARINE

STATION/POSITION TIME  TEMP    WIND        PRES    WAVE   SWELL
                       AIR SEA DIR/SP/G            HT/PER HT/PER
                 (UTC) (F)     (DEG/KT/KT) (MB)    (FT/S) (FT/S)
BRANDYWINE LGT   1742   66     310/  1/  2   N/A
CAPE MAY NJ      1742   65 72  290/  2/  6 1013.8F
LEWES DE         1742   65 72  330/  8/  9 1013.8F
OCEAN-CITY-INLET 1742   69 72   30/  4/  6 1014.3F
WACHAPREAGUE VA  1742   74 73  260/  2/  4 1013.5F
THOMAS POINT MD  1800   69 74  360/  2/  2 1015.0F
GOOSES REEF MD   1800   69 75  140/  6/  8 1014.1    1
COVE POINT MD    1742   67     130/  5/  7 1014.4F
SOLOMONS ISLAND  1742   67 75   80/  6/  8   N/A
BISHOPS HEAD MD  1742   67 71   10/  4/  7 1014.0F
PINEY POINT MD   1748           70/  4/  5   N/A
POTOMAC MD       1800   69 75   80/  8/ 10 1012.4    0
CAMBRIDGE MD     1742   67 74   70/  2/  3 1013.2F
LEWISETTA VA     1742   68 74   80/  5/  7 1013.3F
RAPPAHANNOCK LGT 1748          290/  6/  7 1014.2F
STINGRAY PT      1800   71 76  300/  2/  4 1013.9    0
YORK RVR RNG VA  1742   72      20/  4/  5 1013.3F
YORKTOWN VA      1742   73 76  300/  3/  4 1013.3F
JAMESTOWN VA     1800   71 76  340/  2/  2   N/A     0
DOMINION TERM VA 1742   74     270/  2/  3 1013.7F
KIPTOPEKE VA     1748      75  310/  4/  5   N/A
CHES BAY BRIDGE  1748   74 76  320/  4/  5 1013.4F
CAPE HENRY VA    1748   74     350/  5/  7   N/A
WILLOUBY STN VA  1748   76        CALM       N/A
CAPE HENRY BUOY  1742      76                N/A     3/ 5   2/13
1ST LANDING BUOY 1800   72 76   20/  6/  8 1013.4    2/ 5
CAPE CHARLES BUO 1756      76                N/A     3/ 5   2/13
OFFSHORE WE BUOY 1751      75                N/A     3/ 6   2/13
64NM E OF VA BCH 1750   74 73  190/  8/ 10 1013.8F   3/12   3/12
DUCK PIER NC     1748   79 76  170/  6/  8 1013.0F
44056 DUCK FRF   1741      76                N/A     3/13   2/13
OREGON INLET NC  1748   78 76  250/  2/  4 1013.7F
HATTERAS NC      1748   78 77  130/  9/ 13 1012.9F
DIAMOND SHLS NC  1750   76 84  130/ 17/ 21 1012.9F   4/ 6   2/12
CAPE LOOKOUT NC  1800   78      70/  9/ 10 1012.7F
$$




USA.gov is the U.S. government's official web portal to all federal, state and local government web resources and services.